Location: *
(50.6089°N, 2.2719°E)
Time: 20:56:33
(UTC+00:00)

Cosmos 1726 - Pass Details

Date: 18 October 2019
Orbit: 483 x 500 km, 82.5° (Epoch: 17 November)

Event Time Altitude Azimuth Distance (km) Brightness Sun altitude
Rises 18:03:32 0° 184° (S) 2,549 5.8 -11.8°
Reaches altitude 10° 18:05:38 10° 183° (S) 1,671 4.8 -12.2°
Maximum altitude 18:09:16 74° 98° (E) 512 1.9 -12.7°
Drops below altitude 10° 18:12:56 10° 14° (NNE) 1,680 4.7 -13.3°
Sets 18:15:03 0° 12° (NNE) 2,565 5.6 -13.7°
